EW7244 Weather Reports


time (UTC)temp
C
wind
direction
speed
KPH
gust
KPH
rain 1hr
cm
rain 24hr
cm
rain mn
cm
humidity
%
barometer
mb
20260831100107 25 108 0.0 0.0 0.00 0.00 0.00 61 1010.7
20260831094605 24 37 0.0 0.0 0.00 0.00 0.00 65 1010.8
20260831093049 23 164 0.0 0.0 0.00 0.00 0.00 66 1011.0
20260831091541 23 138 0.0 0.0 0.00 0.00 0.00 65 1011.1
20260831090043 22 119 0.0 0.0 0.00 0.00 0.00 68 1011.1
20260831084538 22 138 0.0 0.0 0.00 0.00 0.00 70 1011.2
20260831083015 21 144 0.0 0.0 0.00 0.00 0.00 69 1011.3
20260831081505 21 124 0.0 0.0 0.00 0.00 0.00 72 1011.2
20260831080005 21 128 0.0 0.0 0.00 0.00 0.00 72 1011.2
20260831074559 21 88 0.0 0.0 0.00 0.00 0.00 75 1011.2
20260831073023 20 121 0.0 0.0 0.00 0.00 0.00 76 1011.2
20260831071609 20 77 0.0 0.0 0.00 0.00 0.00 78 1011.2
20260831070046 20 140 0.0 0.0 0.00 0.00 0.00 77 1011.2
20260831064541 20 140 0.0 0.0 0.00 0.00 0.00 78 1011.2
20260831063105 20 140 0.0 0.0 0.00 0.00 0.00 77 1011.2
20260831061550 20 183 0.0 0.0 0.00 0.00 0.00 77 1011.2
20260831060046 19 173 0.0 1.6 0.00 0.00 0.00 78 1011.3
20260831054557 18 259 0.0 0.0 0.00 0.00 0.00 79 1011.0
20260831053056 17 259 0.0 0.0 0.00 0.00 0.00 83 1011.1
20260831051552 16 259 0.0 0.0 0.00 0.00 0.00 86 1011.0
20260831050040 16 259 0.0 0.0 0.00 0.00 0.00 87 1010.9
20260831044542 16 259 0.0 0.0 0.00 0.00 0.00 86 1010.9
20260831043054 16 259 0.0 0.0 0.00 0.00 0.00 86 1010.8
20260831041548 16 259 0.0 0.0 0.00 0.00 0.00 85 1010.7
20260831040044 16 259 0.0 0.0 0.00 0.00 0.00 85 1010.8
20260831034538 16 259 0.0 0.0 0.00 0.00 0.00 84 1010.9
20260831033049 16 259 0.0 0.0 0.00 0.00 0.00 84 1011.0
20260831031534 16 259 0.0 0.0 0.00 0.00 0.00 84 1011.0
20260831030008 17 259 0.0 0.0 0.00 0.00 0.00 83 1011.0
20260831024601 17 259 0.0 0.0 0.00 0.00 0.00 83 1011.1
20260831023106 17 259 0.0 0.0 0.00 0.00 0.00 82 1011.0
20260831021548 17 259 0.0 0.0 0.00 0.00 0.00 81 1011.0
20260831020059 17 259 0.0 0.0 0.00 0.00 0.00 80 1011.0
20260831014553 17 259 0.0 0.0 0.00 0.00 0.00 81 1011.0
20260831013048 17 259 0.0 0.0 0.00 0.00 0.00 81 1011.2
20260831011546 17 259 0.0 0.0 0.00 0.00 0.00 80 1011.2
20260831010057 17 259 0.0 0.0 0.00 0.00 0.00 80 1011.1
20260831004551 18 259 0.0 0.0 0.00 0.00 0.00 79 1011.2
20260831003048 18 258 0.0 0.0 0.00 0.00 0.00 79 1011.2
20260831001545 18 259 0.0 0.0 0.00 0.00 0.00 80 1011.2
20260831000056 18 259 0.0 0.0 0.00 0.00 0.00 80 1011.4
20260830234558 18 259 0.0 0.0 0.00 0.00 0.00 78 1011.2
20260830233045 19 259 0.0 0.0 0.00 0.00 0.00 75 1011.3
20260830231539 18 259 0.0 0.0 0.00 0.00 0.00 78 1011.3
20260830230053 18 259 0.0 0.0 0.00 0.00 0.00 77 1011.2
20260830224553 19 259 0.0 0.0 0.00 0.00 0.00 77 1011.3
20260830223049 19 259 0.0 0.0 0.00 0.00 0.00 75 1011.2
20260830221546 19 259 0.0 0.0 0.00 0.00 0.00 76 1011.2
20260830220024 20 259 0.0 0.0 0.00 0.00 0.00 75 1011.3
20260830214514 19 259 0.0 0.0 0.00 0.00 0.00 75 1011.2
20260830213114 20 259 0.0 0.0 0.00 0.00 0.00 74 1011.1
20260830211555 19 259 0.0 0.0 0.00 0.00 0.00 76 1011.0
20260830210057 20 259 0.0 0.0 0.00 0.00 0.00 75 1011.0
20260830204602 20 259 0.0 0.0 0.00 0.00 0.00 75 1010.9
20260830203053 20 259 0.0 0.0 0.00 0.00 0.00 72 1010.8
20260830201541 21 259 0.0 0.0 0.00 0.00 0.00 71 1010.6
20260830200059 21 261 0.0 0.0 0.00 0.00 0.00 70 1010.5
20260830194552 21 261 0.0 0.0 0.00 0.00 0.00 71 1010.6
20260830193042 21 262 0.0 0.0 0.00 0.00 0.00 72 1010.6
20260830191541 21 262 0.0 0.0 0.00 0.00 0.00 71 1010.5
20260830190052 21 262 0.0 0.0 0.00 0.00 0.00 69 1010.4
20260830184550 21 265 0.0 0.0 0.00 0.00 0.00 70 1010.3
20260830183101 21 267 0.0 0.0 0.00 0.00 0.00 70 1010.0
20260830181601 22 267 0.0 0.0 0.00 0.00 0.00 71 1009.8
20260830180046 22 248 0.0 0.0 0.00 0.00 0.00 69 1009.6
20260830174603 22 257 0.0 0.0 0.00 0.00 0.00 67 1009.4
20260830173054 23 257 0.0 0.0 0.00 0.00 0.00 67 1009.2
20260830171547 23 257 0.0 0.0 0.00 0.00 0.00 67 1009.2
20260830170032 23 254 0.0 0.0 0.00 0.00 0.00 62 1009.3
20260830164530 24 238 0.0 0.0 0.00 0.00 0.00 63 1009.3
20260830163010 24 253 0.0 0.0 0.00 0.00 0.00 62 1009.4
20260830161608 24 245 0.0 0.0 0.00 0.00 0.00 64 1009.4
20260830160100 25 244 0.0 0.0 0.00 0.00 0.00 61 1009.4
20260830154552 25 246 0.0 0.0 0.00 0.00 0.00 58 1009.3
20260830153102 26 234 0.0 0.0 0.00 0.00 0.00 55 1009.3
20260830151612 28 210 0.0 0.0 0.00 0.00 0.00 52 1009.4
20260830150052 28 107 0.0 1.6 0.00 0.00 0.00 46 1009.5
20260830144548 28 112 0.0 1.6 0.00 0.00 0.00 46 1009.4
20260830143047 28 103 0.0 0.0 0.00 0.00 0.00 47 1009.3
20260830141555 28 153 0.0 1.6 0.00 0.00 0.00 45 1009.4
20260830140123 28 105 0.0 1.6 0.00 0.00 0.00 46 1009.6
20260830134552 28 115 0.0 1.6 0.00 0.00 0.00 45 1009.7
20260830133043 28 134 0.0 1.6 0.00 0.00 0.00 44 1009.7
20260830131541 29 86 0.0 1.6 0.00 0.00 0.00 45 1009.9
20260830130111 29 282 0.0 0.0 0.00 0.00 0.00 49 1010.0
20260830124550 29 245 0.0 0.0 0.00 0.00 0.00 46 1010.1
20260830123002 28 102 0.0 0.0 0.00 0.00 0.00 46 1010.2
20260830121554 29 132 0.0 0.0 0.00 0.00 0.00 46 1010.3
20260830120053 29 228 0.0 0.0 0.00 0.00 0.00 50 1010.3
20260830114604 27 228 0.0 0.0 0.00 0.00 0.00 50 1010.3
20260830113018 27 119 0.0 1.6 0.00 0.00 0.00 54 1010.5
20260830111515 27 223 0.0 0.0 0.00 0.00 0.00 55 1010.5
20260830110005 27 25 0.0 0.0 0.00 0.00 0.00 56 1010.6
20260830104557 26 114 0.0 0.0 0.00 0.00 0.00 57 1010.8
20260830103049 26 235 0.0 0.0 0.00 0.00 0.00 60 1010.9
20260830101549 25 124 0.0 1.6 0.00 0.00 0.00 64 1011.1